Theta_e
290 291 290 290 289 289 288 288 289 288 289 288 289 288 288 288 288 288 287 287 288 289 288 288 288 288 288 287 287 287 288 288 288 288 288 288 289 292 298 300 303 305 307 310 313 314 316 317 318 318 319 320 320 320 320 321 321 321 322 323 323 324 324 324 324 324 324 325 325 326 327 328 329 330 331 332 333 334 335 337 339 339 342 342 342
291 289 290 289 289 289 289 288 287 288 288 288 288 288 287 287 287 287 287 287 288 290 288 287 287 287 288 287 287 287 287 287 287 287 288 288 288 290 295 298 301 304 305 308 311 312 314 315 316 317 318 318 319 319 319 320 321 321 321 321 322 323 323 323 323 324 324 324 325 325 325 325 326 326 327 328 329 331 332 334 337 338 339 340 342
290 290 289 289 288 288 288 287 286 287 288 288 288 288 287 287 288 287 287 287 287 288 287 287 286 287 287 287 287 287 287 288 287 287 287 287 288 288 291 295 299 301 303 306 309 310 312 313 315 315 316 317 318 318 318 319 320 321 319 319 321 322 322 322 322 322 322 323 323 323 323 324 324 325 325 326 327 328 329 331 332 334 338 339 339
290 290 289 289 288 288 287 287 286 287 288 287 288 288 287 287 287 287 287 287 287 287 288 286 286 286 286 286 287 287 286 287 287 287 287 288 287 288 288 291 295 299 301 303 307 309 310 312 313 314 315 315 316 317 318 318 319 319 317 318 320 321 321 321 320 320 320 320 320 320 321 322 324 325 325 325 325 325 326 328 329 331 331 335 338
290 290 291 288 288 287 286 287 287 287 287 287 287 287 287 287 288 287 286 287 287 287 287 286 285 286 286 286 286 286 287 286 287 287 287 287 287 287 287 290 290 295 297 300 303 306 309 310 311 312 313 314 314 316 317 317 318 318 316 317 318 319 319 318 317 317 317 318 319 319 320 321 323 324 325 325 326 326 326 326 327 328 329 330 332
290 289 289 288 288 287 287 286 286 286 287 287 286 286 286 286 286 288 291 287 286 285 285 285 285 285 285 286 285 286 286 286 286 287 287 287 287 287 287 288 288 289 292 297 299 302 306 309 310 310 310 311 312 314 315 315 315 315 315 315 317 317 316 315 315 316 316 316 317 318 320 321 322 322 323 324 325 325 326 326 327 328 328 328 329
290 290 288 288 288 287 286 285 286 286 286 286 286 286 286 286 285 285 285 285 285 286 284 284 284 285 285 287 285 286 286 286 286 286 286 286 286 287 287 287 288 289 292 290 294 297 302 306 309 309 309 311 311 311 312 313 312 312 313 314 315 315 315 314 314 315 315 315 315 316 318 319 321 321 322 322 323 324 325 326 327 328 329 329 330
290 289 288 288 287 287 286 286 286 286 286 285 286 285 286 286 286 285 284 284 284 283 284 284 284 285 285 286 285 287 286 285 286 285 286 287 286 286 287 287 288 290 294 290 290 293 299 304 306 306 307 307 308 308 310 311 310 311 313 313 313 313 313 313 313 313 314 313 314 315 317 317 318 318 318 319 320 321 322 324 325 326 327 327 329
290 289 288 288 287 287 285 286 286 285 285 285 285 286 286 287 285 286 283 283 283 283 283 284 285 285 285 284 285 286 285 285 285 286 288 286 285 286 287 287 290 292 288 290 290 291 295 301 303 303 303 305 306 307 307 308 307 308 310 311 312 312 312 312 311 312 312 312 313 314 316 316 315 315 315 316 317 319 321 322 323 324 325 326 327
289 289 288 288 287 286 285 286 286 285 284 284 285 285 285 285 284 284 283 283 283 283 283 284 285 285 285 284 284 284 284 284 286 289 285 285 285 286 287 286 287 288 289 289 290 291 291 295 299 299 299 301 304 306 307 306 306 307 309 310 310 311 310 310 310 310 310 311 311 312 314 314 314 314 314 315 316 318 320 321 322 323 323 324 325
289 288 288 288 286 286 285 285 285 284 284 284 284 285 285 283 284 283 284 284 283 283 284 284 284 284 284 284 284 283 284 285 286 284 284 284 287 289 286 286 286 287 288 288 289 289 289 290 290 289 290 297 301 303 304 304 304 305 307 308 309 309 309 309 309 310 309 309 310 311 312 312 312 313 313 315 316 317 317 317 317 319 320 322 323
288 288 287 287 286 286 285 285 285 284 284 284 284 284 284 283 283 284 284 285 284 283 283 283 283 282 284 283 283 283 283 286 284 284 286 284 284 285 284 286 285 285 286 286 286 287 287 288 288 287 288 292 298 299 300 300 300 303 305 307 308 308 309 308 308 308 308 309 310 310 311 311 312 312 313 314 314 314 314 315 316 317 318 319 320
288 287 287 288 286 285 285 284 285 285 284 284 284 284 284 283 285 285 283 282 282 282 283 282 280 280 280 281 282 283 285 285 283 283 284 284 284 283 284 285 285 285 285 285 286 286 287 287 286 286 287 287 290 295 296 296 296 300 303 304 306 307 308 307 307 308 308 308 309 310 310 311 311 312 312 313 313 313 314 314 315 316 317 318 318
288 287 287 287 286 285 285 285 285 284 284 283 283 286 284 284 284 282 282 282 281 282 283 280 279 278 279 279 280 282 284 282 283 282 284 284 284 284 284 285 285 285 285 285 285 285 286 286 286 286 286 287 288 287 288 289 291 297 300 302 303 306 306 307 307 308 308 308 309 310 310 310 311 311 312 312 313 313 314 314 315 315 316 317 317
287 287 287 286 286 285 285 285 284 285 284 283 284 283 283 283 282 283 281 282 283 283 282 280 278 279 279 278 277 278 282 280 281 282 283 283 284 283 285 284 284 284 285 284 284 285 286 285 285 285 286 286 286 286 287 288 290 294 296 298 300 303 305 306 308 308 308 308 308 309 309 310 310 311 312 312 312 313 313 314 314 314 315 316 316
287 287 287 286 285 285 285 284 284 285 284 284 283 283 282 282 282 283 283 281 279 281 282 281 280 278 276 278 276 278 277 277 278 281 281 282 282 283 283 283 283 284 284 284 284 284 284 284 284 285 285 285 285 285 286 286 289 291 291 294 295 300 303 306 307 308 308 309 309 309 310 310 311 311 311 311 312 312 312 312 313 314 314 315 315
287 287 287 286 285 285 284 284 284 284 284 283 283 283 283 283 283 283 281 281 279 279 281 281 281 281 278 277 276 276 276 276 278 277 279 280 281 282 283 282 282 283 282 283 283 283 283 283 284 284 284 284 284 285 285 286 286 289 288 289 293 297 300 303 306 306 307 307 307 307 308 308 308 309 309 310 311 311 311 312 312 313 314 314 315
287 287 286 286 285 285 284 284 283 284 284 283 283 282 282 282 283 283 281 280 281 280 279 281 282 282 279 278 278 276 276 277 277 275 278 280 280 281 281 280 281 281 282 282 282 282 284 283 283 283 283 284 284 284 284 284 287 285 286 288 296 297 297 299 302 304 304 305 305 306 307 306 306 307 308 309 309 310 311 312 312 312 313 313 315
286 286 286 286 285 284 284 284 284 283 284 282 282 282 283 282 282 282 281 282 281 279 280 279 279 280 280 280 282 280 279 277 275 276 275 276 278 279 279 280 280 281 281 281 281 281 282 283 283 283 283 283 283 283 283 284 287 288 291 294 295 295 296 297 297 299 302 302 303 304 305 305 305 306 307 308 309 310 311 311 312 312 312 313 313
286 285 285 285 285 284 284 283 283 283 284 283 283 282 282 283 282 282 282 282 281 281 279 279 279 279 280 279 280 279 278 278 277 277 276 274 275 278 279 279 280 280 280 280 280 280 281 281 282 282 282 283 283 283 283 284 284 284 288 292 294 294 295 295 295 296 297 298 301 301 303 304 304 304 304 304 306 307 309 309 310 311 312 313 313
286 285 285 285 285 284 283 283 283 283 284 282 282 282 282 282 281 281 282 281 280 280 280 279 278 279 278 277 278 277 277 277 278 277 276 274 275 275 276 278 279 279 279 280 280 281 281 281 282 283 283 283 282 283 283 283 284 285 290 292 292 293 294 294 294 294 294 295 297 298 301 303 303 304 305 305 305 306 307 307 308 309 310 311 312
284 284 284 284 284 284 283 283 283 283 284 282 281 281 281 282 282 282 281 280 280 280 280 279 279 279 279 279 277 276 276 276 276 276 276 276 275 274 275 275 275 277 279 279 280 280 281 281 281 281 281 282 282 282 283 284 285 286 287 289 290 291 292 293 293 294 294 294 294 296 298 300 302 303 304 304 305 306 306 307 307 308 309 310 311
284 284 284 284 284 283 283 283 283 283 283 282 282 282 282 282 281 281 281 281 280 280 282 280 279 279 278 279 278 278 277 276 276 276 276 275 275 275 275 276 275 275 277 279 280 280 280 280 280 280 281 282 282 283 283 283 286 286 287 288 289 290 290 290 291 291 292 293 293 295 296 297 298 299 301 303 304 305 306 307 307 307 307 308 309
284 284 283 283 283 283 283 282 282 282 282 282 282 282 281 281 280 280 280 280 280 281 280 279 279 279 278 278 278 278 278 277 277 277 276 276 275 274 274 275 276 276 278 278 279 279 279 280 280 280 281 281 282 284 283 282 283 286 285 285 286 287 288 289 290 291 292 292 293 293 294 294 295 295 297 299 301 303 304 305 305 306 307 308 308
284 284 284 283 283 282 282 282 282 282 282 281 281 281 281 281 280 280 280 279 280 280 279 279 279 279 278 278 278 278 278 277 278 277 276 276 275 274 275 275 274 275 277 277 276 278 280 279 280 280 280 281 283 281 281 281 281 284 284 282 284 284 286 287 288 289 290 290 291 292 292 293 293 294 296 297 299 301 303 303 304 305 305 306 307
284 284 285 283 283 283 283 282 282 282 282 281 281 281 281 280 280 280 279 280 279 279 279 279 278 278 278 278 278 277 277 278 277 277 276 276 275 274 274 275 275 274 276 276 276 277 277 278 280 280 280 280 280 280 280 280 280 283 283 280 280 283 284 286 287 287 289 290 290 290 290 290 292 292 293 297 298 298 300 302 303 304 305 305 307
285 285 284 284 283 283 282 282 281 281 281 281 281 281 280 280 280 280 279 279 279 279 278 278 278 278 278 278 278 277 277 277 277 277 277 277 276 275 275 273 274 275 274 276 276 276 277 277 279 279 279 279 278 278 279 279 280 282 281 278 278 280 282 284 286 287 288 288 287 288 289 289 290 291 292 293 295 295 297 299 301 302 303 303 303
285 284 284 284 283 282 282 282 281 281 281 281 280 280 280 280 279 279 279 279 279 278 278 278 278 277 277 278 277 277 277 277 277 277 277 277 277 276 276 275 273 272 275 273 274 274 277 276 277 278 278 277 278 278 280 278 277 281 279 277 277 277 280 283 285 286 286 286 287 287 288 288 289 290 290 291 292 293 294 295 296 296 296 296 296
285 284 283 283 283 282 282 281 281 281 280 280 280 280 280 280 279 279 278 278 278 278 278 278 278 277 277 277 277 277 277 277 278 277 277 277 277 277 277 276 276 274 272 272 273 273 275 277 276 278 277 278 277 277 276 276 278 279 276 276 276 275 278 282 284 284 285 286 286 286 286 287 288 288 289 290 291 291 293 293 294 294 295 296 296
284 284 283 283 282 282 281 281 280 280 280 280 280 279 279 279 279 279 279 278 278 278 278 278 277 277 277 277 277 277 277 277 277 277 277 277 276 276 276 277 277 274 274 272 273 275 274 276 277 276 277 276 277 276 276 275 278 278 276 275 275 275 280 281 282 283 284 284 285 285 286 286 287 287 288 289 289 291 292 292 292 293 294 295 297
283 283 282 282 282 282 281 280 280 280 280 279 279 279 279 279 278 278 278 278 278 277 277 277 277 277 277 276 277 276 277 276 276 277 277 277 276 276 276 276 276 276 275 274 271 275 275 275 276 276 275 274 275 274 275 275 276 277 275 275 275 278 279 278 280 281 282 283 284 285 285 286 287 287 287 288 289 290 291 292 292 292 293 294 295
283 283 282 282 282 281 281 280 280 279 279 279 279 279 278 278 278 277 277 278 277 277 277 277 278 277 277 276 276 276 276 276 275 275 275 275 275 274 275 274 274 274 274 273 272 271 275 275 275 275 274 273 274 273 273 274 276 277 275 275 275 278 275 275 278 280 281 282 284 284 285 286 286 287 287 288 289 290 290 290 291 291 291 292 294
282 282 282 282 281 281 280 280 280 279 279 279 279 278 278 278 277 277 277 277 277 277 277 277 277 277 276 276 276 275 275 275 274 274 274 274 274 274 274 273 273 273 272 272 270 270 273 275 274 274 274 273 272 273 272 273 273 274 276 275 275 274 274 274 275 278 280 282 283 284 285 286 286 287 287 288 288 289 289 289 289 290 291 292 292
282 282 282 282 281 281 280 280 279 279 279 279 278 278 278 277 277 277 277 277 276 276 276 276 276 276 276 275 274 274 274 274 273 273 273 273 272 272 272 272 272 272 273 271 270 270 269 272 272 273 272 274 271 274 272 272 273 274 274 274 275 274 274 275 275 275 279 281 283 284 285 286 286 287 287 287 287 288 288 289 289 289 290 291 291
282 282 282 281 281 281 280 280 279 279 279 278 278 278 278 277 277 276 277 276 276 275 275 275 275 275 274 274 273 272 272 272 272 272 272 272 272 271 271 272 271 271 271 271 270 268 268 269 271 270 271 272 272 272 273 273 274 274 273 274 274 275 276 275 275 276 279 281 283 284 285 286 286 286 286 286 287 287 288 288 289 289 289 290 290
281 281 281 281 281 280 280 279 279 279 278 278 278 278 278 277 277 277 276 276 276 276 275 275 274 274 274 273 272 271 271 270 270 271 271 271 271 271 270 271 271 270 271 271 270 269 268 267 270 270 271 271 272 273 274 274 273 274 274 274 275 274 275 276 275 275 277 281 283 283 284 284 285 285 285 286 286 287 287 287 288 288 288 288 289
281 281 281 281 280 280 280 279 279 278 278 278 277 277 277 277 277 277 276 276 276 275 275 274 275 274 274 273 271 271 271 270 269 269 270 270 270 270 270 270 270 270 270 270 270 270 269 268 269 271 272 272 273 273 273 273 273 274 274 274 274 274 275 276 276 277 279 281 282 282 282 282 283 284 285 285 286 286 287 287 288 288 287 288 288
280 280 280 280 280 280 280 279 279 278 278 278 277 277 277 277 277 276 276 276 275 275 274 273 274 273 273 272 271 271 270 270 269 269 269 269 269 268 268 269 270 270 270 270 270 269 269 269 269 269 271 271 272 272 273 273 273 273 273 274 275 275 275 275 276 277 277 277 277 277 279 280 281 282 284 285 285 286 286 287 287 287 287 287 287
280 280 280 280 280 280 279 279 279 278 278 277 277 277 276 276 276 275 275 275 274 274 273 273 273 272 272 272 271 271 270 270 269 268 268 268 268 268 268 268 269 269 269 269 270 269 269 269 270 271 271 272 272 271 273 274 274 274 272 273 273 275 276 276 275 276 277 277 279 281 280 280 281 281 282 283 284 285 285 286 286 286 286 286 287
280 280 279 279 279 279 279 279 278 278 277 277 277 276 276 276 275 275 274 274 273 273 272 272 272 271 271 271 271 270 270 270 269 269 269 268 268 267 268 268 269 269 269 270 270 270 270 270 270 270 271 271 272 274 274 274 273 273 275 274 272 273 274 276 276 275 276 277 276 276 279 279 279 280 281 282 282 283 284 283 283 283 284 286 286
280 280 279 279 278 278 278 278 278 277 277 277 277 276 276 275 275 274 274 273 273 272 271 271 271 271 270 270 270 270 271 272 273 273 272 272 268 267 268 269 269 270 270 270 270 271 271 271 270 271 271 271 272 273 273 273 272 272 274 274 273 274 274 274 275 277 277 276 276 276 276 276 276 276 276 276 277 279 279 281 281 281 282 284 284
279 279 279 279 278 278 277 277 277 277 277 277 278 280 279 276 275 274 273 272 272 272 271 270 270 270 270 270 270 273 274 274 275 275 275 275 274 271 270 271 271 271 270 270 270 270 270 270 270 271 271 271 272 273 273 274 275 275 274 274 273 274 274 274 275 276 277 276 275 274 275 277 276 276 276 276 277 278 278 278 278 279 281 284 285
278 278 279 278 278 278 278 277 276 276 277 277 280 282 282 280 276 273 273 272 271 271 270 270 269 269 269 269 270 273 274 275 274 276 276 277 276 276 276 276 275 272 271 270 270 271 270 270 272 272 272 272 273 274 274 274 274 274 274 274 274 274 272 271 270 274 277 276 275 274 275 276 276 275 275 276 276 277 277 277 281 282 283 284 285
278 278 278 278 278 278 278 277 277 276 276 279 282 283 283 282 279 274 273 271 271 271 270 270 269 269 269 269 270 271 272 272 272 274 276 277 278 278 279 279 279 279 278 275 274 273 274 273 273 273 273 273 273 274 273 273 273 274 275 274 274 273 272 272 272 271 276 278 275 273 273 276 277 276 275 276 276 277 277 280 283 284 284 285 285
278 278 278 278 278 278 277 277 276 276 276 280 283 283 283 283 281 276 272 272 271 270 270 270 270 270 269 270 270 271 272 275 274 272 272 273 277 278 278 278 278 278 278 279 279 277 276 274 273 273 273 273 272 273 274 274 276 274 274 273 273 273 273 273 273 274 275 277 274 272 271 274 275 274 274 276 277 277 277 280 282 283 284 285 285
278 278 277 277 278 277 277 277 276 276 276 280 283 284 284 283 282 277 271 271 271 271 270 270 270 270 270 270 271 271 272 273 273 273 272 271 271 272 272 273 273 275 277 278 278 278 278 275 274 272 274 274 273 274 276 277 275 273 273 273 274 273 272 271 272 272 273 274 271 271 269 271 275 274 273 275 277 277 277 280 283 284 284 285 285
277 277 277 277 277 277 276 276 276 276 275 281 283 284 284 284 282 277 271 271 271 270 271 271 271 271 271 271 271 272 272 272 273 273 272 272 270 270 270 271 272 273 274 274 275 275 275 275 274 274 275 276 276 276 277 276 276 276 276 274 273 271 271 271 270 271 271 272 272 271 266 270 273 272 272 274 275 276 276 279 282 283 284 284 285
277 277 277 277 276 276 276 276 275 275 275 281 283 284 284 284 283 274 271 270 270 270 270 271 271 272 272 272 272 272 272 272 274 276 275 272 271 270 271 271 272 273 274 276 278 278 277 277 277 277 277 278 279 278 278 277 277 276 274 272 271 269 267 266 266 268 268 271 272 270 268 269 272 271 271 274 275 275 276 276 280 282 283 284 284
277 276 276 277 276 276 275 275 275 274 274 279 283 284 284 284 281 271 271 270 270 270 270 271 272 272 272 272 272 272 272 272 275 277 277 276 272 271 271 272 273 273 273 275 277 279 279 279 279 280 280 279 280 280 279 279 276 275 271 268 267 268 266 264 265 266 267 270 271 272 270 268 271 272 271 274 274 275 275 276 276 280 282 283 284
276 276 276 276 276 275 275 274 275 274 273 278 283 284 284 285 278 271 271 270 270 270 271 271 272 272 273 275 274 272 272 272 275 277 278 277 274 274 273 272 271 271 272 275 276 276 277 278 277 277 278 278 277 277 276 275 276 274 269 266 267 267 265 265 264 265 267 269 270 273 270 270 271 271 270 271 272 273 275 276 277 278 281 281 283
276 276 275 275 274 274 274 274 276 274 273 276 283 284 284 284 277 272 271 271 271 271 272 271 272 272 272 275 275 274 273 273 276 277 278 277 275 274 273 272 271 272 273 274 273 272 271 271 272 273 272 272 270 269 269 272 273 272 270 268 267 266 265 265 265 266 265 266 271 273 268 267 268 269 269 267 266 270 272 272 274 276 277 278 279
Wind_Speed
6 5 4 4 4 4 5 5 5 5 4 4 4 5 4 4 3 3 3 3 3 4 3 3 4 4 4 3 3 3 4 5 4 5 5 5 5 6 11 11 12 12 12 12 11 11 10 10 9 9 9 9 10 10 11 11 11 12 13 13 14 13 13 14 14 14 14 14 14 15 15 16 16 17 18 19 19 19 19 19 19 20 21 19 16
6 5 6 6 5 4 5 5 6 5 5 6 4 5 6 4 3 3 4 3 5 3 3 4 4 3 4 4 4 4 3 4 4 5 5 5 5 5 9 11 11 11 12 12 11 11 10 10 10 9 10 10 10 11 11 11 11 12 13 13 13 13 13 13 14 14 14 15 16 16 16 16 17 17 17 17 18 19 20 21 20 19 18 19 21
6 6 5 6 5 5 6 5 6 5 4 5 3 4 4 4 4 5 4 5 5 3 4 4 4 5 4 4 4 4 4 4 4 4 5 5 5 5 6 10 11 11 11 12 12 11 11 11 11 10 10 11 11 12 12 11 11 12 13 14 13 13 13 13 13 14 15 16 17 17 17 17 17 17 16 16 17 17 18 18 20 21 19 19 18
7 6 6 6 6 6 5 6 6 5 4 4 4 3 4 3 4 3 3 4 4 5 4 5 4 4 4 4 4 5 5 5 5 5 5 5 5 5 6 6 9 11 10 11 12 12 12 12 12 11 11 12 13 13 12 12 11 12 14 14 14 13 14 14 15 15 15 15 16 16 17 17 17 18 17 16 16 16 16 17 17 18 20 20 18
7 8 6 6 6 6 6 5 5 5 4 4 4 3 4 4 4 3 4 4 5 4 3 4 5 5 4 4 5 4 4 5 5 5 6 5 6 5 5 5 5 8 9 10 11 12 13 13 13 13 13 14 14 14 14 13 12 12 14 14 14 14 15 15 15 15 16 16 16 17 17 17 17 18 16 15 15 15 15 16 16 16 17 18 19
8 7 6 6 6 6 6 5 5 4 4 4 5 4 5 5 4 5 4 5 5 3 4 5 3 3 4 4 3 4 4 5 5 5 5 5 5 5 6 6 6 5 5 8 10 12 13 14 14 14 15 15 15 14 14 14 14 14 15 14 14 14 15 16 17 16 16 16 16 16 16 16 18 19 20 19 18 17 17 16 16 16 16 16 17
7 8 7 6 6 6 6 5 5 4 5 4 5 4 4 5 5 6 4 4 4 3 3 3 3 5 4 4 5 4 3 4 4 4 5 5 5 5 5 5 5 5 5 6 7 9 11 13 13 15 15 16 14 14 15 15 15 14 14 14 14 15 16 17 18 17 17 17 17 16 15 16 16 18 19 19 20 20 19 18 17 18 17 16 15
8 7 7 7 7 6 6 5 5 5 5 4 4 5 5 4 2 5 6 3 3 3 2 3 3 3 3 4 4 3 4 4 4 5 4 5 5 5 5 5 5 6 5 6 6 6 11 13 15 15 16 16 16 15 14 14 14 14 14 15 15 15 16 17 19 19 19 19 18 17 16 15 16 18 19 20 20 20 20 19 19 18 17 17 17
8 7 7 7 6 6 5 5 4 5 5 5 5 5 5 5 3 1 3 5 4 3 3 3 4 3 4 4 3 3 3 3 3 3 3 5 5 6 6 7 6 6 6 7 6 6 8 12 13 14 15 16 15 14 13 14 14 15 15 16 16 16 17 18 19 19 19 19 19 18 17 17 18 19 20 20 21 21 21 20 20 19 18 17 16
8 8 7 6 6 6 5 5 5 5 5 4 5 3 4 4 5 2 3 5 5 4 3 3 3 4 4 5 4 3 3 3 2 3 4 5 5 5 6 5 6 6 6 6 6 6 6 8 11 12 12 14 15 14 15 16 17 17 17 16 16 17 17 18 18 18 19 20 20 20 19 19 19 20 20 20 20 20 20 21 21 21 20 20 18
8 8 8 7 7 6 6 5 5 6 6 5 4 4 4 3 5 5 4 5 5 3 1 2 2 3 3 5 3 3 2 1 1 3 5 3 3 3 4 6 5 6 6 6 6 7 7 7 7 7 8 14 15 15 17 19 19 19 18 17 17 17 18 18 18 18 20 21 21 21 20 20 20 19 19 19 19 20 21 22 23 23 23 22 21
8 8 7 7 7 7 7 5 5 6 7 7 6 6 6 6 5 6 6 4 4 2 1 1 0 1 2 4 3 3 3 1 2 4 5 4 4 3 6 5 6 6 6 7 7 7 7 7 8 8 8 10 14 15 18 19 19 19 19 18 18 18 17 17 18 19 20 20 20 20 20 20 20 20 19 19 20 21 22 23 23 24 24 23 23
8 8 8 8 7 6 6 5 5 6 6 6 5 6 4 5 5 3 4 4 3 3 2 2 5 3 2 4 6 4 3 1 3 4 6 5 5 6 5 5 6 7 7 7 8 8 7 8 8 7 7 7 8 12 15 17 18 19 19 19 18 18 17 17 18 19 19 19 19 19 19 20 20 20 20 20 21 22 22 23 24 24 24 24 24
8 8 8 8 8 7 7 7 6 6 5 3 4 4 4 5 5 5 2 3 2 3 4 1 5 2 3 6 6 5 3 5 3 2 5 4 4 5 4 6 6 6 6 7 6 6 6 6 6 6 6 6 6 6 8 8 10 18 19 19 19 18 18 18 18 19 19 19 19 20 20 21 21 21 21 21 22 22 23 23 23 24 24 24 24
8 9 8 8 8 8 8 7 6 6 6 6 5 5 5 6 4 7 5 3 3 2 4 2 3 3 3 2 4 5 4 5 3 2 4 1 4 3 4 5 5 4 5 5 6 5 5 5 5 5 6 5 6 6 6 7 9 14 16 19 20 19 18 18 19 19 19 19 20 21 21 21 21 21 21 22 23 23 24 24 24 24 24 24 24
9 9 8 8 8 9 6 6 7 6 6 8 7 6 5 5 4 4 7 4 1 1 3 3 3 4 3 2 0 1 0 2 4 6 4 2 3 3 4 4 4 4 5 5 5 6 5 5 5 5 5 4 4 5 5 5 9 11 12 13 16 18 19 19 19 19 20 20 21 21 21 22 22 22 23 23 24 25 25 25 25 25 25 25 25
9 10 9 9 8 7 7 7 7 6 6 6 7 8 6 5 6 6 5 7 4 2 1 2 2 0 7 4 2 1 2 2 3 5 3 1 1 2 3 4 4 4 4 4 4 5 5 5 5 5 5 4 4 4 5 5 6 5 8 10 13 15 16 17 18 20 21 22 22 22 23 23 24 24 24 24 25 25 26 25 25 25 25 25 25
9 10 9 8 9 9 8 8 7 7 7 6 4 5 6 7 6 6 4 2 6 4 2 1 3 3 2 1 2 3 5 3 1 2 4 1 4 1 1 3 2 5 4 4 5 6 5 5 5 6 4 4 4 4 4 4 4 5 6 7 14 16 17 18 18 18 19 20 21 22 23 24 24 25 25 25 25 26 26 25 24 24 24 24 25
9 9 9 9 8 8 9 8 8 7 6 6 7 8 7 6 5 5 4 5 6 4 6 3 3 3 3 3 5 4 5 6 4 2 4 5 3 0 1 1 1 6 5 2 5 4 4 4 6 6 5 4 4 3 3 3 5 5 7 12 15 15 16 17 17 17 18 18 19 19 20 21 22 23 24 25 26 26 27 27 27 26 25 23 23
9 9 9 9 9 9 9 8 8 8 7 8 8 7 6 4 5 5 5 6 6 9 6 7 6 3 1 4 4 4 3 2 3 5 2 2 5 1 3 2 5 4 3 2 4 3 4 6 6 6 5 5 4 3 3 3 4 4 5 14 14 15 16 16 16 16 17 18 19 20 21 21 22 23 24 25 26 27 27 28 28 28 27 27 26
8 9 9 9 9 9 8 8 8 8 8 7 6 7 8 9 8 7 7 6 5 5 8 8 5 7 6 2 4 3 2 1 3 2 3 3 4 3 2 4 4 6 3 3 2 3 6 6 6 5 4 4 3 3 4 4 4 5 8 16 16 16 16 17 17 17 17 18 19 20 21 22 23 23 23 24 24 24 25 26 27 28 28 28 28
8 8 8 9 9 8 9 9 9 9 8 8 7 7 7 7 8 7 7 7 5 7 8 7 5 6 6 7 5 4 3 2 2 2 1 2 5 3 0 4 8 3 3 4 5 6 4 5 5 4 4 4 3 3 3 4 5 6 10 18 16 17 17 17 17 17 18 18 19 20 20 21 21 22 23 23 23 24 24 24 25 25 27 28 29
8 8 9 9 9 9 9 9 8 8 8 8 9 9 8 8 7 7 7 9 7 7 5 5 5 6 5 7 8 8 8 6 6 4 3 1 2 4 1 2 4 11 1 2 10 7 3 3 4 5 3 3 3 4 5 5 6 11 16 16 16 16 18 19 20 20 19 19 19 19 19 20 21 21 22 23 24 23 24 24 25 25 24 26 27
9 9 10 10 10 9 8 8 8 8 9 8 7 8 7 7 7 8 7 7 7 7 7 8 7 6 5 6 6 6 5 6 6 6 6 5 3 4 6 5 4 6 2 7 5 4 7 5 4 3 4 2 3 4 5 5 7 14 9 13 16 18 17 18 18 18 19 19 19 20 21 22 23 23 24 24 25 25 25 25 25 26 25 25 25
12 12 12 13 11 10 10 10 9 9 8 8 8 8 8 8 8 8 8 9 9 9 9 9 9 9 8 5 6 6 6 5 6 6 5 5 5 1 2 3 4 10 4 4 2 2 6 4 3 4 3 3 4 4 4 5 4 10 13 8 16 15 16 17 18 19 20 21 21 22 23 23 23 24 24 24 25 26 25 26 26 26 27 27 28
14 15 13 12 11 11 10 10 8 8 8 9 8 8 9 9 8 9 9 8 7 8 8 8 6 5 6 7 6 6 6 6 6 6 6 6 4 4 1 3 2 8 7 6 5 7 2 3 0 2 1 3 3 4 5 6 5 12 16 11 12 16 18 19 20 21 21 21 22 23 23 23 24 24 24 24 24 25 25 26 26 27 27 27 28
13 11 10 13 12 10 11 10 10 10 9 9 8 8 8 7 7 7 6 6 8 8 7 8 8 8 7 6 7 6 6 6 6 6 6 6 6 5 5 1 3 3 4 3 8 4 10 5 1 1 4 2 2 3 4 4 7 14 14 7 6 15 18 21 21 21 21 22 23 23 23 24 24 24 25 25 26 26 27 27 27 27 27 27 27
9 10 11 12 12 12 11 11 10 10 9 9 9 9 9 9 8 7 8 5 8 8 7 7 7 8 7 6 7 6 6 7 6 6 6 6 6 6 6 5 4 3 3 4 3 5 5 5 3 1 2 2 4 4 5 6 4 13 10 6 7 9 17 20 21 21 22 23 23 23 24 24 25 26 26 26 26 27 27 27 27 27 27 27 27
10 10 11 12 11 12 11 11 11 10 10 9 9 9 9 9 9 9 9 7 7 8 7 7 6 7 6 7 7 7 6 6 6 6 6 6 6 6 6 7 6 4 2 3 2 3 3 4 1 2 3 5 5 6 7 7 9 11 5 6 7 7 14 19 20 21 22 23 24 26 26 26 26 27 27 26 26 26 26 27 27 27 27 27 28
10 9 11 12 12 12 11 11 10 10 11 9 9 9 9 8 8 8 6 7 7 5 6 6 6 6 6 6 6 7 6 6 6 6 6 6 6 6 6 6 6 7 6 4 5 4 6 3 4 3 2 4 4 5 5 8 12 12 7 7 7 7 17 19 20 21 22 23 24 24 26 26 27 27 27 27 27 27 27 28 28 28 28 29 29
11 11 12 12 12 12 11 11 10 11 10 10 9 9 9 8 8 8 7 8 8 7 6 7 6 7 7 7 6 6 6 6 6 6 5 6 6 6 6 6 6 6 6 5 3 5 6 6 4 1 0 2 3 5 4 4 6 10 8 9 9 15 20 13 18 20 21 23 24 25 25 26 26 26 27 27 27 28 28 29 29 29 29 30 30
11 12 12 13 13 13 12 11 11 11 11 10 10 10 9 9 9 9 8 9 9 9 8 6 6 7 8 8 7 7 6 6 6 6 5 4 5 5 5 5 4 4 4 5 8 9 4 4 3 4 2 3 6 8 7 5 5 9 6 7 9 15 10 9 14 20 21 23 24 25 25 26 27 27 27 27 28 29 29 30 30 30 31 31 30
12 13 13 14 14 14 13 13 13 13 13 12 10 10 10 10 9 9 9 9 10 8 8 8 6 7 7 7 7 7 7 7 6 6 5 5 4 4 4 5 5 4 5 5 7 11 6 7 7 4 0 2 3 4 7 6 8 8 8 7 8 7 8 8 9 14 19 22 23 24 25 27 27 27 28 28 28 29 30 30 31 31 30 30 29
13 14 14 13 13 14 13 13 13 12 12 13 12 11 12 11 10 8 9 10 10 9 9 9 8 7 7 8 7 7 6 7 6 6 6 5 4 4 4 5 4 5 4 4 5 7 9 3 6 3 4 4 4 5 6 8 7 8 9 9 7 7 8 9 9 9 17 21 22 23 24 25 27 28 28 28 28 29 30 30 30 30 30 30 29
12 13 14 14 14 14 13 13 13 13 13 12 12 12 12 13 13 11 10 11 11 12 11 11 10 8 8 8 8 7 6 7 6 6 5 5 5 5 5 4 4 4 4 4 3 5 8 5 3 6 2 3 5 7 6 6 7 6 8 7 8 8 7 9 10 9 14 19 21 22 24 27 27 28 28 29 30 30 29 30 30 30 30 30 30
13 12 12 14 13 14 14 14 14 14 13 12 12 12 13 13 13 13 12 11 11 11 11 11 10 10 10 9 8 8 7 8 6 6 5 5 5 5 4 4 4 4 4 4 5 6 4 9 3 2 7 5 5 4 6 6 6 7 7 9 7 7 8 8 9 8 10 18 21 24 26 25 26 26 27 28 28 28 29 30 30 30 29 29 29
13 12 12 12 14 15 16 16 16 15 14 14 13 12 11 11 12 12 12 12 11 11 10 10 9 10 10 10 9 9 8 8 7 7 6 7 5 5 5 4 4 4 3 4 5 5 7 9 10 4 7 7 4 5 4 8 9 8 9 8 8 8 8 6 6 7 12 19 22 24 24 24 24 25 26 26 27 28 28 27 28 28 29 29 29
12 13 14 13 14 16 15 15 16 15 15 14 14 14 13 12 11 11 11 11 10 10 9 8 9 9 9 9 10 10 10 10 9 7 7 7 6 5 5 4 3 3 3 4 5 6 7 9 8 12 4 7 9 3 3 6 10 14 12 6 7 8 9 10 7 6 7 8 9 9 13 16 19 23 24 26 27 26 25 24 25 26 28 27 28
13 13 13 14 13 15 15 14 15 15 15 14 13 13 13 12 12 12 11 10 9 8 8 8 8 8 8 8 9 9 10 9 9 8 8 7 5 5 6 5 4 3 4 4 5 6 6 9 9 8 10 6 6 11 6 6 9 8 13 16 13 6 8 10 11 7 7 10 12 19 18 17 20 19 23 25 25 25 24 24 25 27 27 26 26
14 15 15 15 13 12 13 13 13 12 13 13 13 13 12 12 12 12 11 11 10 8 8 8 8 7 7 7 7 7 7 6 7 6 7 7 5 6 5 5 4 5 5 5 6 6 6 6 7 10 8 10 9 7 7 7 7 4 4 10 15 14 10 8 8 12 10 10 12 8 9 13 15 18 22 22 23 25 27 27 28 29 29 26 24
12 13 13 13 13 13 11 12 12 12 13 13 12 13 13 12 11 11 11 11 11 10 9 8 7 7 6 6 6 5 6 8 11 9 9 8 6 7 6 6 6 6 6 6 5 5 5 6 8 8 9 10 10 13 11 11 12 10 10 8 11 12 13 15 8 7 11 12 12 11 7 5 11 12 9 11 12 18 22 29 25 31 32 32 32
12 12 12 13 14 14 14 13 13 12 12 11 13 20 17 14 13 11 10 10 11 10 10 9 8 7 7 6 6 12 12 13 13 14 14 14 13 9 6 7 7 7 7 6 6 5 4 5 6 8 9 8 10 11 12 12 10 10 12 12 15 18 14 15 16 5 11 12 12 14 12 7 11 14 11 12 11 12 12 13 13 17 24 30 31
13 13 13 15 14 14 15 15 15 13 12 10 20 22 23 21 14 12 13 12 11 11 10 11 11 9 7 7 6 10 11 12 11 15 14 15 15 16 16 15 12 9 7 6 5 6 6 5 5 6 6 10 11 11 12 12 12 14 11 14 14 14 17 16 20 12 5 11 19 15 11 3 6 14 13 10 10 12 12 12 21 27 30 31 31
13 12 15 16 15 14 13 13 14 13 12 15 24 24 24 24 19 13 11 11 11 11 10 10 9 9 9 8 7 7 7 8 7 8 12 15 15 14 16 17 17 16 14 8 6 5 5 6 6 8 11 12 12 11 11 12 12 13 13 12 13 15 15 18 13 18 12 11 18 21 23 5 3 13 16 12 8 10 14 19 28 31 30 31 32
12 14 16 15 15 14 14 15 14 13 12 19 24 26 25 25 25 17 10 11 12 11 11 11 10 10 9 9 9 7 7 15 10 7 5 6 11 15 14 15 14 14 14 16 15 9 6 7 7 9 8 11 13 11 9 11 13 15 14 14 13 15 15 16 16 12 15 11 18 23 24 15 7 12 17 15 8 10 13 19 27 29 31 31 31
14 14 13 15 14 15 15 15 14 13 13 20 26 26 26 26 25 18 11 12 11 11 10 11 10 11 11 10 10 9 8 8 7 8 7 6 4 5 5 5 5 9 13 14 14 15 13 8 7 9 10 9 12 13 13 11 12 14 16 14 11 11 13 14 17 17 16 11 14 18 23 20 6 11 18 17 11 11 12 19 29 30 30 31 32
14 15 15 15 14 13 13 12 12 12 11 21 25 26 25 27 26 17 11 10 9 9 10 10 10 10 10 9 9 9 9 9 7 9 8 7 6 6 6 7 8 8 9 8 8 7 7 8 10 12 13 11 11 12 10 10 12 13 10 12 13 14 15 15 16 13 14 8 11 12 19 20 8 14 17 14 13 12 12 19 28 30 31 33 33
9 8 9 10 13 14 13 13 13 13 11 24 25 27 28 26 27 13 11 11 11 10 9 10 9 9 9 9 9 8 8 8 12 16 12 8 7 8 9 9 8 8 8 8 11 12 11 9 8 8 8 10 16 15 15 13 10 9 12 12 11 11 11 12 14 12 12 8 9 11 15 15 10 14 18 14 13 13 14 11 24 31 32 34 34
12 12 12 12 11 12 13 13 13 12 11 20 25 25 27 29 21 10 11 10 10 10 10 10 9 9 8 8 8 8 8 8 12 16 17 15 9 11 10 9 7 4 5 6 12 15 15 15 17 20 21 22 22 22 20 20 16 15 11 12 11 8 12 12 14 11 11 9 8 12 14 17 13 15 16 15 15 17 15 14 15 23 30 31 33
13 13 11 10 10 11 13 14 13 13 12 18 27 28 28 29 18 13 11 11 10 10 10 9 8 8 9 15 10 7 7 7 14 16 16 13 8 8 6 5 5 5 6 6 5 5 11 16 19 21 22 19 16 16 18 20 23 17 8 11 9 8 11 10 14 15 16 12 10 11 12 9 14 14 17 17 21 16 12 12 14 15 23 24 28
10 9 10 10 10 10 11 13 15 15 12 16 26 27 29 30 19 13 12 11 12 11 11 10 8 7 7 12 15 9 8 9 15 15 16 13 6 6 6 4 6 7 6 2 3 5 6 7 7 5 6 9 7 8 10 18 18 15 10 10 9 8 11 11 11 14 15 11 3 5 13 10 12 14 11 14 16 18 15 15 16 12 11 10 11
Wind_Direction
166 169 155 159 152 145 144 141 135 145 140 146 144 147 143 147 134 118 103 85 68 52 50 46 44 42 41 29 22 15 7 3 360 353 356 355 350 340 348 349 351 352 353 355 358 2 8 12 13 16 15 17 17 16 14 15 17 16 14 13 12 11 10 8 7 4 1 357 355 351 347 346 347 348 347 344 341 335 324 315 313 313 308 299 285
167 167 163 166 166 157 148 154 154 157 150 155 171 147 145 134 120 105 96 82 67 44 51 41 32 27 27 20 17 5 2 2 355 352 347 350 346 339 343 347 348 350 352 350 356 5 11 14 18 20 22 23 20 19 18 15 17 18 17 16 13 13 13 13 12 9 6 4 1 359 355 351 348 348 345 342 341 342 343 338 323 314 313 311 305
164 169 171 168 170 163 164 160 157 171 163 156 162 150 147 131 130 117 104 89 73 50 52 46 26 19 10 15 1 359 0 358 350 348 352 349 346 340 338 342 344 347 348 347 350 2 12 17 20 18 23 23 19 18 15 13 12 16 18 15 13 13 14 16 15 14 11 8 4 0 356 352 347 343 341 341 339 339 339 337 338 334 324 316 314
164 173 176 174 175 171 167 163 174 171 164 154 151 146 132 122 108 100 92 89 73 50 40 50 29 11 0 6 358 0 356 353 351 349 347 351 347 342 339 335 339 342 344 344 348 353 3 14 16 16 19 20 18 14 13 10 8 15 16 12 11 14 16 16 15 13 10 8 5 360 355 352 348 344 340 338 335 334 333 332 332 333 334 332 323
173 175 177 179 174 168 170 177 173 168 161 151 137 130 115 109 91 97 79 74 67 41 36 48 33 0 358 353 357 354 352 350 349 351 352 348 348 341 337 336 334 338 340 343 346 349 355 2 9 12 12 13 11 8 6 8 10 13 12 10 11 14 14 13 10 8 7 6 4 1 356 351 349 346 343 340 340 337 333 330 327 327 328 329 330
166 175 172 174 177 176 173 177 173 167 151 142 139 143 126 114 118 92 76 75 77 51 45 29 10 349 356 341 351 345 349 350 352 351 347 348 343 342 338 336 337 334 335 340 346 349 352 359 3 10 11 12 10 4 3 8 8 6 3 3 8 11 11 7 3 4 4 5 3 1 356 352 351 352 353 354 352 349 346 342 336 331 326 325 325
171 167 173 174 175 178 182 182 166 158 150 154 138 130 124 127 129 103 88 75 75 63 60 51 11 356 341 341 336 340 360 352 348 358 357 344 346 347 344 338 334 337 337 344 344 344 348 354 4 11 15 16 11 4 1 3 3 1 359 359 4 4 4 2 359 358 0 1 0 359 356 354 352 352 351 349 349 347 345 345 347 348 346 337 327
169 166 169 179 179 182 184 169 166 154 152 147 137 139 132 117 115 131 109 93 97 54 46 38 10 348 332 330 325 341 357 353 358 359 353 350 351 348 346 344 344 346 354 352 348 344 346 358 5 10 12 11 7 2 359 359 4 3 2 0 0 358 357 357 356 354 356 357 356 354 353 355 357 355 351 347 344 341 339 339 342 343 344 348 350
171 170 169 176 178 181 180 173 167 158 155 157 149 151 140 124 98 104 123 126 99 83 35 23 359 341 326 325 329 349 357 0 357 358 359 7 354 357 359 358 354 357 3 358 356 354 350 1 7 10 9 5 0 360 357 358 3 1 357 355 354 352 353 355 353 351 353 354 352 349 350 353 353 352 349 345 342 339 337 335 336 337 337 340 343
173 171 171 175 174 174 174 175 167 157 153 152 156 143 131 130 115 73 99 101 79 66 23 360 353 336 334 326 332 7 349 4 2 22 31 10 3 2 356 355 360 3 2 2 0 357 0 1 9 14 9 360 358 359 358 2 1 357 354 354 354 353 352 350 349 350 352 351 349 347 347 349 349 348 345 343 340 338 339 339 337 335 333 332 334
174 170 168 172 170 173 177 180 168 160 152 149 149 142 131 121 122 103 69 79 104 96 77 321 323 328 328 319 336 349 359 11 58 37 30 19 356 1 8 7 6 5 3 8 5 7 5 6 8 10 6 358 358 360 360 1 359 354 353 353 352 351 350 349 351 352 350 348 346 344 344 345 345 345 343 341 340 340 340 338 336 334 333 331 329
174 172 169 169 172 180 179 177 173 162 161 160 166 163 152 129 124 119 106 81 62 79 26 41 311 51 343 332 338 350 356 56 82 75 33 33 9 26 24 2 25 7 8 7 14 13 8 6 10 6 2 352 354 359 0 2 359 355 353 353 352 350 350 352 352 350 348 347 346 343 342 342 342 342 341 340 340 340 337 335 333 331 330 329 328
173 169 174 172 177 172 172 183 177 172 176 180 164 157 155 143 128 109 115 91 43 7 17 88 41 20 28 18 350 16 18 60 80 77 39 28 25 27 10 34 26 23 9 7 10 9 11 11 4 356 352 351 350 353 357 358 357 355 355 355 352 350 351 351 350 349 349 348 346 343 342 341 341 340 339 339 338 337 335 333 331 329 328 327 326
172 174 172 175 172 178 183 182 177 178 172 152 157 153 141 132 136 78 33 114 73 359 330 92 30 83 13 337 350 7 37 54 74 23 34 21 35 22 22 39 24 13 6 13 7 8 4 358 353 349 345 348 350 352 350 351 348 352 355 356 354 352 350 349 349 349 350 349 346 344 343 341 339 337 338 337 336 335 333 331 329 328 326 325 324
174 177 174 180 181 176 186 177 179 166 156 166 164 155 156 152 147 129 99 47 95 26 5 47 135 136 139 87 7 11 334 16 348 339 11 348 51 32 46 43 23 11 8 14 2 355 348 347 346 346 340 343 343 344 345 345 345 347 350 352 352 352 350 349 349 350 350 349 347 346 343 340 338 337 337 337 335 333 330 329 328 326 324 323 322
177 177 177 179 178 182 171 176 180 179 174 165 167 165 157 153 136 132 130 110 74 22 14 1 122 124 27 78 172 100 324 347 334 306 19 58 74 58 42 41 30 13 25 4 349 341 335 339 340 332 332 329 337 340 341 342 345 346 347 344 343 349 350 351 350 351 352 353 352 351 347 344 342 340 337 335 333 330 328 326 325 323 322 321 320
177 181 178 180 179 174 174 178 176 183 176 174 176 175 171 164 159 150 154 142 154 138 347 358 8 316 141 111 57 28 211 268 349 293 327 13 177 76 35 44 41 28 10 332 335 337 329 335 324 322 322 329 332 337 340 343 347 350 344 344 333 351 360 359 357 356 354 352 351 347 344 342 340 337 334 332 330 327 324 323 321 320 320 320 318
181 180 182 173 178 177 174 173 179 179 180 178 165 149 164 166 180 162 144 135 133 125 98 344 347 13 50 118 159 171 165 215 105 274 316 334 311 111 122 45 81 23 351 320 342 333 326 320 314 314 319 321 325 332 340 342 346 348 354 334 2 10 4 0 357 353 351 349 346 343 341 339 336 333 331 329 327 325 324 322 321 319 318 317 317
184 182 181 178 175 176 176 178 176 176 171 161 176 183 173 166 154 144 152 137 122 121 150 159 59 18 25 63 74 81 124 124 195 55 328 318 2 1 323 59 349 10 332 315 334 318 312 309 309 310 311 313 323 325 334 338 347 357 355 10 14 6 3 360 357 354 352 349 346 343 340 336 333 331 329 327 325 324 323 322 321 320 318 316 316
181 185 181 179 177 177 177 175 176 180 174 181 182 173 153 148 153 153 143 149 143 141 158 173 151 183 74 80 82 79 92 89 130 161 167 248 308 343 343 354 332 320 254 319 323 299 319 314 310 313 315 316 318 328 331 343 1 13 13 17 14 9 4 1 358 353 350 345 340 336 332 328 325 323 321 319 318 317 317 317 316 316 316 317 317
184 182 184 182 181 179 176 177 178 180 182 179 176 169 169 160 158 155 160 157 146 148 148 182 169 162 143 96 102 103 90 65 152 127 159 180 263 185 286 310 271 268 193 310 266 322 320 304 301 299 300 296 306 323 347 1 24 28 20 21 13 4 355 349 343 340 338 336 332 331 328 325 323 321 318 316 313 311 310 309 309 310 311 311 311
184 183 183 185 182 178 180 183 183 180 181 180 170 170 167 168 169 162 156 154 152 150 165 170 174 164 162 150 135 121 95 82 106 135 86 183 225 222 95 342 332 255 268 231 308 313 296 284 290 292 296 302 323 357 4 28 35 35 18 9 358 353 350 346 343 340 336 333 331 328 325 325 325 323 321 319 316 315 313 311 308 305 305 307 308
179 189 188 183 184 182 184 187 182 180 177 176 181 176 174 167 163 155 159 157 160 152 143 155 152 156 156 163 163 164 168 167 175 174 156 173 299 277 160 165 256 299 153 347 315 302 271 287 293 294 307 311 353 8 33 35 35 16 15 5 360 354 347 340 335 332 328 327 327 325 325 326 326 324 322 320 318 316 314 313 312 310 306 303 304
187 188 191 185 183 185 185 182 185 181 185 181 177 176 167 161 162 166 164 158 152 150 151 155 162 161 167 165 163 152 142 139 160 152 146 164 151 279 322 317 270 199 268 324 278 271 322 317 294 288 290 1 18 46 45 38 20 13 21 7 348 340 337 335 334 332 331 330 328 327 324 322 320 317 313 310 307 307 306 306 307 309 309 307 304
197 192 194 184 182 182 184 186 188 190 181 176 177 171 167 169 170 170 166 167 169 162 162 172 167 170 173 171 154 151 151 146 137 142 136 130 126 37 333 40 319 308 310 14 326 254 230 212 249 282 300 26 50 52 37 26 19 4 2 348 342 340 339 339 338 336 333 331 328 325 322 319 316 313 311 309 307 305 304 304 304 305 304 303 302
189 198 186 179 187 189 184 189 185 181 180 180 174 174 171 172 173 173 177 172 159 166 165 164 168 166 153 153 157 151 146 145 143 137 144 133 138 145 37 359 323 298 317 338 347 2 337 183 293 302 49 74 52 34 25 12 10 354 348 344 340 341 341 340 338 335 334 332 329 326 323 320 318 315 313 311 312 312 311 309 307 304 302 300 299
193 190 172 185 186 181 186 184 183 181 179 178 176 174 173 167 174 176 169 166 167 161 163 162 164 162 162 158 152 145 151 152 144 152 147 150 145 151 144 76 323 237 278 308 308 268 266 313 327 341 84 88 85 32 17 16 355 343 342 341 334 340 339 336 334 335 334 332 329 327 325 323 320 318 315 313 312 311 310 308 306 305 304 303 301
185 175 186 180 183 184 182 187 180 180 181 179 176 175 173 170 171 173 175 171 165 168 165 161 162 163 159 153 143 153 153 154 151 150 153 153 147 153 149 149 158 279 276 278 226 270 257 263 321 36 86 34 7 13 12 2 343 337 345 337 337 336 333 331 333 333 331 329 328 327 325 323 322 321 319 316 314 312 310 307 304 301 299 297 296
182 179 176 182 184 183 183 182 181 180 179 182 178 176 174 174 174 173 176 171 165 170 159 165 164 158 154 160 153 151 154 149 147 148 153 152 158 160 161 164 175 178 231 253 251 250 281 194 184 309 70 4 15 11 348 337 334 337 338 337 328 324 323 328 329 329 328 327 327 326 325 323 321 320 317 315 313 311 309 306 305 302 298 296 295
173 175 174 179 183 182 183 182 180 178 182 178 178 176 173 178 176 178 167 157 157 152 164 159 162 156 155 153 153 150 155 148 152 155 154 159 158 162 166 170 179 190 195 219 256 202 261 234 194 253 3 35 20 346 334 321 326 331 330 326 321 312 321 325 324 324 324 324 322 321 320 319 317 316 313 310 308 306 303 301 298 297 296 295 294
175 172 176 178 180 183 182 180 178 180 179 180 175 175 176 174 174 172 163 164 163 165 166 161 165 159 161 161 159 153 154 147 146 151 152 151 154 152 161 160 183 183 204 220 257 241 206 231 232 213 338 8 333 313 303 273 303 320 321 318 315 317 322 318 319 319 320 320 320 319 317 316 313 310 308 305 303 303 301 300 299 298 297 296 294
176 174 176 180 180 180 183 180 179 179 180 180 177 175 176 181 173 171 171 167 166 167 166 166 163 167 164 165 168 159 156 144 146 145 142 138 137 142 152 156 168 167 165 204 238 244 211 243 248 287 94 5 329 312 305 306 297 307 297 300 305 315 316 312 313 314 315 316 316 316 313 313 313 308 306 304 301 299 297 296 294 294 293 292 291
175 178 180 182 180 181 180 182 182 182 180 179 180 175 179 178 178 173 166 170 167 167 162 167 169 169 172 168 167 160 152 147 148 143 143 145 143 153 162 162 177 182 176 216 239 268 251 252 259 211 245 308 275 264 288 298 310 308 305 304 303 304 304 303 304 304 308 310 311 311 312 312 310 307 305 303 299 297 295 292 291 290 288 287 287
176 180 181 179 180 179 180 184 185 185 185 182 179 178 180 178 177 172 172 172 170 169 167 172 173 173 170 165 164 158 159 148 148 152 150 153 159 156 180 174 192 187 196 178 246 258 279 186 271 259 251 220 238 267 273 296 293 299 304 307 305 301 305 302 301 299 301 305 306 307 310 308 305 305 302 301 298 295 294 292 291 290 288 286 285
183 181 181 179 178 178 180 183 184 185 186 184 183 182 183 180 177 177 177 176 176 173 178 180 175 166 166 168 167 159 151 145 153 152 148 156 158 172 185 180 174 198 195 205 223 253 269 259 208 273 214 257 283 290 283 272 279 278 289 295 303 300 291 293 293 293 296 298 300 301 303 307 302 301 300 299 298 296 293 292 290 288 288 285 285
183 185 180 178 176 179 182 183 185 186 184 186 185 187 185 180 178 178 176 180 181 183 181 175 172 172 171 164 173 165 157 152 157 154 156 156 168 176 175 193 188 193 199 201 220 247 280 294 192 296 297 295 277 257 280 283 287 296 291 293 284 280 283 282 284 289 286 291 300 303 302 300 301 299 297 297 296 295 294 293 291 290 288 286 285
184 178 181 177 178 181 186 185 184 185 186 184 183 185 187 185 181 177 178 179 183 185 183 178 173 171 173 177 169 167 163 158 162 166 164 168 173 171 182 191 192 195 201 209 228 239 269 275 290 281 297 289 268 280 284 315 312 300 299 297 300 301 295 280 280 275 282 297 300 299 298 295 295 295 296 297 297 297 297 296 297 294 290 286 284
181 184 179 181 185 187 187 186 184 184 183 184 184 184 183 180 180 180 179 179 180 179 177 176 175 176 177 174 174 170 170 171 174 167 168 170 166 175 184 192 189 205 213 231 244 250 252 269 284 304 308 319 315 293 325 320 319 317 312 294 306 313 310 311 298 297 300 291 296 290 286 287 284 285 292 297 296 295 294 294 297 296 292 285 281
180 182 186 184 188 187 189 184 186 184 182 181 183 183 182 181 180 177 175 176 174 173 175 174 173 176 178 176 175 175 175 173 167 169 166 168 172 184 189 189 205 201 231 238 241 253 256 280 290 288 302 304 298 311 318 303 300 300 307 317 316 321 308 314 312 306 295 285 270 279 283 281 284 289 290 288 288 288 289 291 295 296 294 289 285
186 186 184 187 187 186 186 186 186 180 180 181 183 183 183 180 178 178 174 171 169 168 167 170 172 177 178 177 178 177 170 164 160 161 163 168 164 186 190 185 197 214 226 233 244 251 266 272 290 305 303 305 306 280 287 295 280 272 296 308 309 323 319 307 307 311 305 287 292 276 262 276 278 272 276 279 279 283 285 289 289 289 288 287 288
185 186 183 180 177 185 184 183 180 181 182 186 184 181 178 179 178 176 173 169 168 168 167 168 168 169 174 176 172 164 162 166 173 173 174 171 169 182 196 186 202 210 222 227 227 249 265 275 281 286 291 301 307 315 322 332 331 318 320 314 296 310 315 311 311 297 291 298 293 282 275 257 277 276 265 265 264 272 273 277 280 280 280 280 280
181 178 178 181 183 183 180 183 183 183 187 186 184 182 179 175 172 171 167 170 170 170 166 165 168 174 175 170 172 174 178 183 188 189 191 195 192 190 190 191 202 213 221 226 234 229 238 257 270 290 295 293 306 315 315 316 318 313 312 316 315 315 315 311 306 316 307 299 293 292 287 270 275 277 272 268 267 261 266 270 267 273 276 277 277
181 178 177 181 185 184 185 183 182 186 187 184 181 182 180 176 171 169 170 172 171 167 169 169 173 172 171 170 169 186 185 189 191 197 199 202 206 209 208 209 210 208 215 224 227 228 240 249 266 270 274 293 303 311 312 316 316 315 315 314 312 313 314 317 315 319 145 322 307 296 284 192 246 282 276 260 264 271 264 261 272 279 282 280 278
182 177 182 186 184 185 184 184 186 186 186 182 182 183 180 177 173 171 170 169 167 169 170 171 169 169 170 169 176 183 184 182 181 198 205 209 214 222 227 227 228 228 229 224 233 249 260 279 285 290 298 296 303 307 309 312 309 309 309 309 307 307 307 301 300 300 317 327 313 308 298 292 259 281 286 282 268 261 270 277 283 286 284 282 280
170 180 189 181 188 183 182 184 187 185 185 183 184 183 181 179 176 169 170 166 168 170 170 171 170 169 169 170 173 181 185 190 190 186 190 217 224 226 229 234 238 244 252 257 260 262 267 273 277 283 284 298 297 295 298 304 309 306 308 304 302 298 297 297 298 309 313 340 311 299 298 305 322 287 288 288 281 267 273 278 281 283 283 281 280
182 184 183 186 184 185 186 185 184 184 183 185 185 184 182 179 174 167 167 166 168 171 164 169 171 170 173 172 172 175 177 183 179 178 186 195 212 231 244 254 258 255 257 262 267 270 273 276 283 282 284 276 280 288 294 300 306 304 302 300 310 312 311 302 304 301 297 310 294 294 293 295 330 301 296 294 294 277 275 279 285 287 285 283 282
184 185 185 186 188 184 183 182 182 184 184 185 187 185 182 180 176 161 163 162 162 166 168 170 170 171 172 175 175 171 167 174 178 178 181 186 193 210 225 232 238 239 241 246 253 254 255 259 261 265 271 272 275 286 293 296 291 290 303 315 318 310 302 302 294 290 293 293 286 285 282 295 338 305 294 291 291 282 276 280 285 287 287 285 283
184 178 185 184 182 184 183 180 181 184 179 186 188 186 184 181 176 160 163 164 164 165 166 169 171 174 176 176 174 171 166 162 182 190 191 183 194 212 220 227 231 234 232 234 250 261 264 257 248 254 267 278 287 292 293 296 306 322 316 309 306 299 299 295 289 302 293 302 290 284 284 291 313 295 292 286 283 279 278 271 283 286 285 283 282
180 185 187 186 185 182 181 182 181 180 176 189 189 186 186 185 173 150 162 160 162 163 168 169 171 174 181 180 177 167 165 166 186 198 200 197 197 208 216 217 216 218 250 256 268 273 277 283 286 290 291 291 292 293 298 305 305 309 310 304 296 309 301 299 294 295 287 297 285 284 283 288 293 291 293 293 296 294 294 290 285 282 282 282 279
184 187 179 179 183 182 181 184 182 175 180 188 188 189 185 186 165 157 162 164 163 166 164 168 169 175 181 183 173 168 171 176 196 199 203 207 201 193 192 207 220 246 255 252 268 283 293 293 292 289 288 291 297 304 308 307 303 303 297 288 298 304 287 284 288 294 295 289 285 281 283 292 313 312 308 303 296 281 281 283 289 281 278 275 276
182 173 176 179 179 181 186 182 181 182 180 186 189 188 185 185 162 162 163 167 165 168 167 166 166 165 174 189 187 181 183 195 200 204 206 204 187 193 187 201 239 243 246 257 287 299 290 279 278 299 310 305 304 305 299 300 298 298 290 282 291 282 282 283 282 293 294 286 260 319 300 301 299 292 301 303 295 295 295 288 289 290 291 283 276